DLH410 EDDM-KJFK

Flight info

Callsign DLH410
Flight time N/A
Altitude 38000
Route GIVMI1N GIVMI Y101 INBED DCT REKDI DCT LOHRE DCT BUB L608 DENUT L610 KOPUL Q60 OKSAW DCT BIBPE DCT TIGWE DCT FELCA DCT FADZU DCT NICXI DCT OFSOX DCT SLANY DCT LUPOR DCT MALOT DCT RIKAL/N0484F400 N572A TOPPS DCT ENE PARCH4
Aircraft A359/H-SADE2E3GHIJ2J3J4J5M1P2RWXY/LB1D1

Departure

Time 2026-05-07 06:30
Airport Munich Airport (EDDM)

Arrival

Time N/A
Airport John F. Kennedy International Airport (KJFK)
Time Latitude Longitude Altitude Speed Heading
2026-05-07 04:52 48.35892 11.79236 1485 ft 0 kts 263°
2026-05-07 06:08 48.35890 11.79210 1476 ft 4 kts 263°
2026-05-07 06:08 48.35886 11.79163 1482 ft 4 kts 263°
2026-05-07 06:08 48.35882 11.79116 1489 ft 4 kts 263°
2026-05-07 06:08 48.35878 11.79066 1481 ft 5 kts 263°
2026-05-07 06:09 48.35891 11.79224 1477 ft 0 kts 263°
2026-05-07 06:16 48.35893 11.79242 1478 ft 5 kts 263°
2026-05-07 06:16 48.35897 11.79300 1476 ft 3 kts 263°
2026-05-07 06:16 48.35891 11.79365 1483 ft 8 kts 313°
2026-05-07 06:16 48.35852 11.79385 1476 ft 5 kts 353°
2026-05-07 06:17 48.35841 11.79387 1476 ft 4 kts 353°
2026-05-07 06:21 48.35844 11.79386 1476 ft 2 kts 353°
2026-05-07 06:21 48.35863 11.79383 1476 ft 6 kts 353°
2026-05-07 06:21 48.35915 11.79360 1476 ft 9 kts 338°
2026-05-07 06:21 48.35976 11.79337 1482 ft 9 kts 348°
2026-05-07 06:22 48.36046 11.79321 1481 ft 11 kts 352°
2026-05-07 06:22 48.36101 11.79391 1476 ft 6 kts 84°
2026-05-07 06:22 48.36106 11.79458 1480 ft 7 kts 84°
2026-05-07 06:23 48.36112 11.79542 1491 ft 9 kts 84°
2026-05-07 06:23 48.36119 11.79643 1491 ft 11 kts 84°
2026-05-07 06:23 48.36128 11.79761 1480 ft 12 kts 84°
2026-05-07 06:23 48.36138 11.79896 1481 ft 14 kts 84°
2026-05-07 06:24 48.36149 11.80047 1479 ft 15 kts 84°
2026-05-07 06:24 48.36162 11.80212 1481 ft 17 kts 83°
2026-05-07 06:24 48.36176 11.80391 1481 ft 18 kts 83°
2026-05-07 06:24 48.36191 11.80583 1481 ft 19 kts 83°
2026-05-07 06:25 48.36207 11.80788 1485 ft 20 kts 83°
2026-05-07 06:25 48.36223 11.81004 1478 ft 21 kts 84°
2026-05-07 06:25 48.36240 11.81231 1482 ft 22 kts 83°
2026-05-07 06:25 48.36258 11.81468 1491 ft 23 kts 83°
2026-05-07 06:26 48.36277 11.81713 1481 ft 24 kts 83°
2026-05-07 06:26 48.36293 11.81896 1480 ft 7 kts 73°
2026-05-07 06:26 48.36329 11.81952 1486 ft 8 kts 35°
2026-05-07 06:26 48.36380 11.82004 1476 ft 10 kts 28°
2026-05-07 06:27 48.36438 11.82006 1482 ft 4 kts 352°
2026-05-07 06:27 48.36440 11.82006 1484 ft 0 kts 352°
2026-05-07 06:27 48.36445 11.82005 1485 ft 3 kts 352°
2026-05-07 06:27 48.36485 11.81996 1482 ft 9 kts 352°
2026-05-07 06:28 48.36551 11.81982 1483 ft 10 kts 352°
2026-05-07 06:28 48.36620 11.81968 1479 ft 8 kts 352°
2026-05-07 06:28 48.36662 11.81954 1479 ft 5 kts 333°
2026-05-07 06:28 48.36673 11.81913 1480 ft 4 kts 270°
2026-05-07 06:29 48.36670 11.81874 1485 ft 4 kts 262°
2026-05-07 06:29 48.36663 11.81791 1483 ft 22 kts 262°
2026-05-07 06:29 48.36619 11.81239 1492 ft 83 kts 263°
2026-05-07 06:29 48.36532 11.80110 1489 ft 135 kts 263°
2026-05-07 06:30 48.36406 11.78479 1699 ft 162 kts 263°
2026-05-07 06:30 48.36297 11.76854 2405 ft 155 kts 264°
2026-05-07 06:30 48.36207 11.75258 2987 ft 156 kts 264°
2026-05-07 06:30 48.36088 11.73566 3306 ft 171 kts 263°
2026-05-07 06:31 48.35939 11.71713 3596 ft 187 kts 262°
2026-05-07 06:31 48.35784 11.69697 3951 ft 200 kts 265°
2026-05-07 06:31 48.35931 11.67653 4421 ft 210 kts 286°
2026-05-07 06:31 48.36626 11.65530 4746 ft 232 kts 297°
2026-05-07 06:32 48.37507 11.63398 5134 ft 245 kts 299°
2026-05-07 06:32 48.38426 11.61214 5861 ft 248 kts 298°
2026-05-07 06:32 48.39340 11.59017 6649 ft 249 kts 298°
2026-05-07 06:32 48.40259 11.56785 7349 ft 253 kts 297°
2026-05-07 06:33 48.41191 11.54504 8055 ft 258 kts 297°
2026-05-07 06:33 48.42135 11.52186 8759 ft 263 kts 297°
2026-05-07 06:33 48.43096 11.49818 9464 ft 268 kts 297°
2026-05-07 06:33 48.44076 11.47404 10171 ft 272 kts 297°
2026-05-07 06:34 48.45146 11.45024 10832 ft 279 kts 306°
2026-05-07 06:34 48.46687 11.43168 11469 ft 294 kts 329°
2026-05-07 06:34 48.48654 11.42225 11796 ft 317 kts 345°
2026-05-07 06:34 48.50887 11.41627 12123 ft 335 kts 347°
2026-05-07 06:35 48.53246 11.41031 12445 ft 352 kts 347°
2026-05-07 06:35 48.55704 11.40394 12866 ft 364 kts 347°
2026-05-07 06:35 48.58220 11.39726 13509 ft 369 kts 347°
2026-05-07 06:35 48.60760 11.39042 14108 ft 373 kts 347°
2026-05-07 06:36 48.63333 11.38341 14676 ft 379 kts 347°
2026-05-07 06:36 48.65946 11.37625 15244 ft 384 kts 347°
2026-05-07 06:36 48.68583 11.36853 15806 ft 387 kts 343°
2026-05-07 06:36 48.71085 11.35437 16482 ft 383 kts 330°
2026-05-07 06:37 48.73418 11.33476 17114 ft 385 kts 325°
2026-05-07 06:37 48.75676 11.31260 17721 ft 389 kts 322°
2026-05-07 06:37 48.77923 11.28904 18245 ft 396 kts 321°
2026-05-07 06:37 48.80185 11.26492 18779 ft 400 kts 321°
2026-05-07 06:38 48.82483 11.24068 19335 ft 405 kts 323°
2026-05-07 06:38 48.84973 11.21995 19873 ft 412 kts 333°
2026-05-07 06:38 48.87639 11.20313 20397 ft 418 kts 336°
2026-05-07 06:38 48.90384 11.18794 20925 ft 423 kts 338°
2026-05-07 06:39 48.93191 11.17359 21438 ft 428 kts 339°
2026-05-07 06:39 48.96033 11.15954 21941 ft 432 kts 340°
2026-05-07 06:39 48.98873 11.14558 22443 ft 436 kts 340°
2026-05-07 06:39 49.01769 11.13123 23003 ft 439 kts 340°
2026-05-07 06:40 49.04681 11.11665 23527 ft 443 kts 340°
2026-05-07 06:40 49.07616 11.10180 23967 ft 446 kts 340°
2026-05-07 06:40 49.10563 11.08679 24487 ft 447 kts 339°
2026-05-07 06:40 49.13493 11.07184 25297 ft 441 kts 339°
2026-05-07 06:41 49.16406 11.05697 25788 ft 443 kts 339°
2026-05-07 06:41 49.19345 11.04193 26145 ft 448 kts 339°
2026-05-07 06:41 49.22311 11.02676 26563 ft 451 kts 339°
2026-05-07 06:41 49.25302 11.01135 26875 ft 457 kts 340°
2026-05-07 06:42 49.28334 10.99569 27258 ft 461 kts 340°
2026-05-07 06:42 49.31371 10.97997 27722 ft 462 kts 340°
2026-05-07 06:42 49.34412 10.96329 28180 ft 464 kts 335°
2026-05-07 06:42 49.37292 10.94105 28609 ft 464 kts 327°
2026-05-07 06:43 49.39891 10.91218 29001 ft 464 kts 316°
2026-05-07 06:43 49.42171 10.87690 29401 ft 464 kts 309°
2026-05-07 06:43 49.44288 10.83929 29786 ft 466 kts 308°
2026-05-07 06:43 49.46348 10.80066 30143 ft 469 kts 307°
2026-05-07 06:44 49.48391 10.76136 30417 ft 472 kts 307°
2026-05-07 06:44 49.50468 10.72116 30745 ft 474 kts 307°
2026-05-07 06:44 49.52500 10.68189 31052 ft 476 kts 307°
2026-05-07 06:44 49.54570 10.64202 31336 ft 479 kts 307°
2026-05-07 06:45 49.56660 10.60191 31609 ft 481 kts 307°
2026-05-07 06:45 49.58761 10.56167 31864 ft 483 kts 307°
2026-05-07 06:45 49.60873 10.52120 32118 ft 486 kts 307°
2026-05-07 06:45 49.62997 10.48048 32378 ft 488 kts 307°
2026-05-07 06:46 49.65128 10.43958 32628 ft 491 kts 307°
2026-05-07 06:46 49.67235 10.39799 32861 ft 492 kts 304°
2026-05-07 06:46 49.69197 10.35493 33298 ft 489 kts 302°
2026-05-07 06:46 49.71074 10.31134 33690 ft 487 kts 301°
2026-05-07 06:47 49.72932 10.26746 33931 ft 489 kts 301°
2026-05-07 06:47 49.74800 10.22348 34118 ft 490 kts 301°
2026-05-07 06:47 49.76688 10.17951 34344 ft 491 kts 301°
2026-05-07 06:47 49.78588 10.13568 34612 ft 490 kts 302°
2026-05-07 06:48 49.80488 10.09208 34873 ft 489 kts 302°
2026-05-07 06:48 49.82396 10.04844 35120 ft 489 kts 302°
2026-05-07 06:48 49.84298 10.00496 35372 ft 488 kts 302°
2026-05-07 06:48 49.86203 9.96132 35615 ft 488 kts 302°
2026-05-07 06:49 49.88100 9.91778 35839 ft 487 kts 302°
2026-05-07 06:49 49.89993 9.87425 36053 ft 487 kts 302°
2026-05-07 06:49 49.91884 9.83068 36262 ft 487 kts 302°
2026-05-07 06:49 49.93772 9.78708 36470 ft 487 kts 302°
2026-05-07 06:50 49.95657 9.74349 36667 ft 486 kts 302°
2026-05-07 06:50 49.97543 9.69980 36861 ft 486 kts 302°
2026-05-07 06:50 49.99421 9.65625 37060 ft 486 kts 302°
2026-05-07 06:50 50.01300 9.61257 37309 ft 485 kts 302°
2026-05-07 06:51 50.03170 9.56902 37555 ft 484 kts 302°
2026-05-07 06:51 50.05017 9.52527 37800 ft 483 kts 299°
2026-05-07 06:51 50.06581 9.47908 37917 ft 482 kts 291°
2026-05-07 06:51 50.07757 9.43026 37937 ft 483 kts 287°
2026-05-07 06:52 50.09777 9.33040 37939 ft 484 kts 285°
2026-05-07 06:52 50.11668 9.22986 37957 ft 483 kts 284°
2026-05-07 06:53 50.13551 9.12927 37961 ft 483 kts 285°
2026-05-07 06:53 50.15445 9.02865 37958 ft 484 kts 285°
2026-05-07 06:54 50.17341 8.92788 37959 ft 484 kts 285°
2026-05-07 06:54 50.19230 8.82704 37958 ft 484 kts 285°
2026-05-07 06:55 50.21111 8.72606 37964 ft 484 kts 284°
2026-05-07 06:55 50.22968 8.62573 37966 ft 484 kts 284°
2026-05-07 06:56 50.24829 8.52467 37960 ft 484 kts 284°
2026-05-07 06:56 50.26678 8.42370 37971 ft 484 kts 284°
2026-05-07 06:57 50.28522 8.32245 37967 ft 484 kts 284°
2026-05-07 06:57 50.30356 8.22117 37973 ft 484 kts 284°
2026-05-07 06:58 50.32181 8.11981 37977 ft 484 kts 284°
2026-05-07 06:58 50.33998 8.01835 37976 ft 484 kts 284°
2026-05-07 06:59 50.35806 7.91683 37989 ft 484 kts 284°
2026-05-07 06:59 50.37605 7.81524 37987 ft 484 kts 284°
2026-05-07 07:00 50.39395 7.71357 37998 ft 484 kts 284°
2026-05-07 07:00 50.41176 7.61185 37989 ft 484 kts 284°
2026-05-07 07:01 50.42947 7.51013 37992 ft 483 kts 284°
2026-05-07 07:01 50.44708 7.40835 37990 ft 483 kts 284°
2026-05-07 07:02 50.46459 7.30656 37989 ft 483 kts 284°
2026-05-07 07:02 50.48202 7.20468 37986 ft 483 kts 284°
2026-05-07 07:03 50.49933 7.10286 37988 ft 483 kts 284°
2026-05-07 07:03 50.51658 7.00086 37989 ft 483 kts 284°
2026-05-07 07:04 50.53371 6.89891 37992 ft 483 kts 284°
2026-05-07 07:04 50.55076 6.79689 37989 ft 482 kts 283°
2026-05-07 07:05 50.56771 6.69483 37993 ft 483 kts 283°